Location: Guferjoch
(46.7462°N, 8.4506°E)
Time: 23:50:27
(UTC+00:00)

ATLAS 5 CENTAUR R/B - Pass Details

Date: 14 July 2020
Orbit: 534 x 1124 km, 63.4° (Epoch: 09 August)

Event Time Altitude Azimuth Distance (km) Brightness Sun altitude
Rises 01:34:30 0° 322° (NW) 3,229 5.5 -16.3°
Reaches altitude 10° 01:36:47 10° 326° (NW) 2,387 4.9 -16.1°
Maximum altitude 01:42:18 59° 46° (NE) 1,034 3.0 -15.6°
Drops below altitude 10° 01:48:45 10° 126° (SE) 2,775 4.9 -15.0°
Sets 01:51:34 0° 130° (SE) 3,796 5.5 -14.7°
